Regional Weather Roundup
Issued by NWS Sterling, VA

Home | Current Version | Previous Version | Graphics & Text | Print | Product List | Glossary On
Versions: 1 2 3 4 5 6 7 8 9 10 11 12 13 14 15 16 17 18 19 20 21 22 23 24 25 26 27 28 29 30 31 32 33 34 35 36 37 38 39 40 41 42 43 44 45 46 47 48 49 50
000
ASUS41 KLWX 230410
RWRLWX

REGIONAL WEATHER ROUNDUP
NATIONAL WEATHER SERVICE BALTIMORE MD/WASHINGTON DC
1200 AM EDT TUE SEP 23 2014

Note: "FAIR" indicates few or no clouds below 12,000 feet
with no significant weather and/or obstructions to visibility.
 TC=TEMPERATURE CELSIUS

 * =Non NWS site. Station does not report precipitation (e.g. rain,
    snow, etc.), thunder, or fog.

DCZ001-MDZ009-015-VAZ040>042-051-053>054-230500-
WASHINGTON METRO

CITY           SKY/WX    TMP DP  RH WIND       PRES   REMARKS
WASHINGTON NAT MOCLDY    60  43  53 NW9       30.25R
DULLES         MOCLDY    55  44  66 N6        30.25R
ANDREWS AFB    MOCLDY    57  44  60 N8        30.23R
QUANTICO       MOCLDY    61  45  55 N16G25    30.24R
COLLEGE PARK*  MOCLDY    55  45  67 NW3       30.24R
LEESBURG*      PTCLDY    54  46  76 CALM      30.26S
MANASSAS*      MOCLDY    57  46  67 N8        30.25S
GAITHERSBURG*  PTCLDY    48  43  81 NW3       30.27F

$$

MDZ006>007-011-014-230500-
BALTIMORE METRO

CITY           SKY/WX    TMP DP  RH WIND       PRES   REMARKS
BWI AIRPORT    MOCLDY    55  43  63 NW5       30.22S
MD SCIENCE CTR   N/A     60  41  49 MISG      30.23R
MARTIN STATE   PTCLDY    55  46  71 NW6       30.24R
ANNAPOLIS      MOCLDY    61  47  59 MISG      30.22S
FORT MEADE*    PTCLDY    50  45  81 NW5       30.25S

$$

MDZ012-015-019>023-230500-
MARYLAND EASTERN SHORE

CITY           SKY/WX    TMP DP  RH WIND       PRES   REMARKS
OCEAN CITY     MOCLDY    59  47  64 N8        30.18S
SALISBURY      MOCLDY    60  47  61 N7        30.19R
BAY BRIDGE AP*   N/A     61  43  51 N12G18    30.22S
CAMBRIDGE*     CLOUDY    61  45  55 N8        30.20R
EASTON*        CLOUDY    60  47  62 N5        30.24S

$$

MDZ017>025-230500-
SOUTHERN MARYLAND

CITY           SKY/WX    TMP DP  RH WIND       PRES   REMARKS
PATUXENT RIVER MOCLDY    61  45  55 N12       30.20S
ST INIGOES     MOCLDY    62  43  49 VRB7      30.20R
LEONARDTOWN*   MOCLDY    59  43  55 N5        30.22S

$$

MDZ003>005-230500-
NORTH CENTRAL MARYLAND

CITY           SKY/WX    TMP DP  RH WIND       PRES   REMARKS
FREDERICK*     PTCLDY    57  45  62 NW3       30.28R
HAGERSTOWN APT CLEAR     53  40  61 NW5       30.26R
WESTMINSTER*   MOCLDY    55  43  62 CALM      30.24R

$$

MDZ501>502-230500-
WESTERN MARYLAND

CITY           SKY/WX    TMP DP  RH WIND       PRES   REMARKS
OAKLAND*       MOCLDY    43 N/A N/A CALM      30.27S
CUMBERLAND*    PTCLDY    48  41  76 CALM      30.31S

$$

VAZ025>031-230500-
SHENANDOAH VALLEY

CITY           SKY/WX    TMP DP  RH WIND       PRES   REMARKS
WINCHESTER*    CLEAR     52  41  66 NW3       30.26F
STAUNTON*      MOCLDY    53  43  69 NE6       30.26S

$$

WVZ021-048>050-054>055-230500-
EASTERN WEST VIRGINIA PANHANDLE

CITY           SKY/WX    TMP DP  RH WIND       PRES   REMARKS
MARTINSBURG    CLEAR     54  39  57 NW6       30.27R
PETERSBURG*    CLEAR     43  40  90 W5        30.29S

$$

VAZ036>039-050-230500-
CENTRAL FOOTHILLS

CITY           SKY/WX    TMP DP  RH WIND       PRES   REMARKS
CHARLOTTESVILL CLOUDY    55  47  74 NE3       30.22R
ORANGE*        MOCLDY    57  45  62 N6        30.24S

$$

VAZ055>057-230500-
NORTH AND CENTRAL PIEDMONT

CITY           SKY/WX    TMP DP  RH WIND       PRES   REMARKS
FREDERICKSBRG* CLOUDY    60  48  65 N3        30.23R
STAFFORD*      CLOUDY    57  46  68 N3        30.27S

$$

NCZ024-NYZ072-PAZ021-071-VAZ022-071-230500-
OTHER REGIONAL OBSERVATIONS

CITY           SKY/WX    TMP DP  RH WIND       PRES   REMARKS
NEW YORK CITY  CLEAR     56  38  50 VRB7      30.20R
PHILADELPHIA   PTCLDY    58  41  53 NW9       30.21R
PITTSBURGH     CLEAR     46  41  82 CALM      30.28S
ROANOKE        PTCLDY    57  46  66 N6        30.24S
RICHMOND       MOCLDY    63  46  54 N12       30.20R
RALEIGH        CLOUDY    64  57  78 NE5       30.16S

$$

ANZ530>537-230500-
MARINE OBSERVATIONS

STATION/POSITION TIME  TEMP    WIND        PRES
                       AIR SEA DIR/SP/G
                 (UTC) (F)     (DEG/KT/KT) (MB)
THOMAS PT LIGHT  0400   61 72  330/ 13/ 15 1024.1R
BALT KEY BRIDGE  0400   61     320/ 16/ 19 1023.5F
COVE POINT       0400   63     360/ 18/ 23 1022.7R
LEWISETTA        0400   64 73  360/ 11/ 17 1022.3R
SOLOMONS ISLAND  0400      75                N/A
PINEY POINT      0400           20/ 14/ 17   N/A

$$




USA.gov is the U.S. government's official web portal to all federal, state and local government web resources and services.